| time (UTC) | temp C | wind direction | speed KPH | gust KPH | rain 1hr cm | rain 24hr cm | rain mn cm | humidity % | barometer mb |
| 20260507110026 | 11 | 234 | 1.6 | 4.8 | 0.00 | 0.00 | 0.00 | 78 | 1020.9 |
| 20260507105510 | 11 | 236 | 1.6 | 4.8 | 0.00 | 0.00 | 0.00 | 78 | 1021.0 |
| 20260507105007 | 11 | 166 | 1.6 | 8.0 | 0.00 | 0.00 | 0.00 | 78 | 1021.0 |
| 20260507104524 | 11 | 261 | 4.8 | 8.0 | 0.00 | 0.00 | 0.00 | 78 | 1020.9 |
| 20260507104011 | 11 | 217 | 0.0 | 4.8 | 0.00 | 0.00 | 0.00 | 78 | 1021.0 |
| 20260507103508 | 11 | 211 | 1.6 | 6.4 | 0.00 | 0.00 | 0.00 | 78 | 1021.0 |
| 20260507103028 | 11 | 210 | 1.6 | 8.0 | 0.00 | 0.00 | 0.00 | 78 | 1021.0 |
| 20260507102509 | 11 | 232 | 3.2 | 8.0 | 0.00 | 0.00 | 0.00 | 77 | 1021.0 |
| 20260507102007 | 11 | 182 | 4.8 | 8.0 | 0.00 | 0.00 | 0.00 | 77 | 1021.0 |
| 20260507101510 | 11 | 215 | 4.8 | 6.4 | 0.00 | 0.00 | 0.00 | 78 | 1021.0 |
| 20260507101009 | 11 | 212 | 1.6 | 6.4 | 0.00 | 0.00 | 0.00 | 78 | 1021.0 |
| 20260507100505 | 11 | 207 | 3.2 | 8.0 | 0.00 | 0.00 | 0.00 | 78 | 1021.0 |
| 20260507100023 | 11 | 194 | 4.8 | 8.0 | 0.00 | 0.00 | 0.00 | 78 | 1021.0 |
| 20260507095506 | 11 | 223 | 3.2 | 6.4 | 0.00 | 0.00 | 0.00 | 78 | 1021.0 |
| 20260507095010 | 11 | 195 | 3.2 | 6.4 | 0.00 | 0.00 | 0.00 | 78 | 1020.9 |
| 20260507094523 | 11 | 237 | 1.6 | 6.4 | 0.00 | 0.00 | 0.00 | 78 | 1020.9 |
| 20260507094007 | 11 | 198 | 3.2 | 6.4 | 0.00 | 0.00 | 0.00 | 78 | 1020.9 |
| 20260507093507 | 11 | 228 | 3.2 | 9.7 | 0.00 | 0.00 | 0.00 | 78 | 1020.9 |
| 20260507093025 | 11 | 221 | 3.2 | 9.7 | 0.00 | 0.00 | 0.00 | 78 | 1021.0 |
| 20260507092514 | 11 | 225 | 3.2 | 9.7 | 0.00 | 0.00 | 0.00 | 78 | 1021.0 |
| 20260507092012 | 11 | 226 | 4.8 | 11.3 | 0.00 | 0.00 | 0.00 | 78 | 1021.0 |
| 20260507091526 | 11 | 211 | 4.8 | 11.3 | 0.00 | 0.00 | 0.00 | 78 | 1021.0 |
| 20260507091005 | 11 | 224 | 3.2 | 11.3 | 0.00 | 0.00 | 0.00 | 79 | 1021.0 |
| 20260507090510 | 11 | 248 | 4.8 | 9.7 | 0.00 | 0.00 | 0.00 | 79 | 1020.9 |
| 20260507090015 | 11 | 228 | 3.2 | 8.0 | 0.00 | 0.00 | 0.00 | 80 | 1021.0 |
| 20260507085506 | 11 | 211 | 4.8 | 8.0 | 0.00 | 0.00 | 0.00 | 80 | 1021.0 |
| 20260507085006 | 11 | 205 | 3.2 | 9.7 | 0.00 | 0.00 | 0.00 | 80 | 1021.0 |
| 20260507084520 | 11 | 239 | 4.8 | 9.7 | 0.00 | 0.00 | 0.00 | 80 | 1021.1 |
| 20260507084009 | 11 | 236 | 4.8 | 9.7 | 0.00 | 0.00 | 0.00 | 80 | 1021.0 |
| 20260507083510 | 11 | 211 | 4.8 | 12.9 | 0.00 | 0.00 | 0.00 | 81 | 1021.1 |
| 20260507083024 | 11 | 240 | 3.2 | 12.9 | 0.00 | 0.00 | 0.00 | 81 | 1021.1 |
| 20260507082510 | 11 | 192 | 4.8 | 11.3 | 0.00 | 0.00 | 0.00 | 82 | 1021.0 |
| 20260507082011 | 11 | 201 | 4.8 | 9.7 | 0.00 | 0.00 | 0.00 | 82 | 1021.1 |
| 20260507081528 | 11 | 227 | 3.2 | 9.7 | 0.00 | 0.00 | 0.00 | 82 | 1021.1 |
| 20260507081011 | 11 | 216 | 4.8 | 9.7 | 0.00 | 0.00 | 0.00 | 82 | 1021.1 |
| 20260507080507 | 11 | 226 | 4.8 | 6.4 | 0.00 | 0.00 | 0.00 | 82 | 1021.1 |
| 20260507080014 | 11 | 228 | 3.2 | 8.0 | 0.00 | 0.00 | 0.00 | 83 | 1021.1 |
| 20260507075507 | 11 | 194 | 3.2 | 8.0 | 0.00 | 0.00 | 0.00 | 82 | 1021.3 |
| 20260507075007 | 11 | 224 | 3.2 | 6.4 | 0.00 | 0.00 | 0.00 | 83 | 1021.2 |
| 20260507074519 | 11 | 188 | 1.6 | 6.4 | 0.00 | 0.00 | 0.00 | 83 | 1021.3 |
| 20260507074008 | 11 | 207 | 3.2 | 8.0 | 0.00 | 0.00 | 0.00 | 83 | 1021.3 |
| 20260507073506 | 11 | 208 | 4.8 | 8.0 | 0.00 | 0.00 | 0.00 | 83 | 1021.3 |
| 20260507073022 | 11 | 200 | 3.2 | 9.7 | 0.00 | 0.00 | 0.00 | 82 | 1021.1 |
| 20260507072515 | 11 | 205 | 3.2 | 9.7 | 0.00 | 0.00 | 0.00 | 82 | 1021.1 |
| 20260507072009 | 11 | 212 | 3.2 | 9.7 | 0.00 | 0.00 | 0.00 | 82 | 1021.1 |
| 20260507071523 | 11 | 197 | 4.8 | 9.7 | 0.00 | 0.03 | 0.00 | 82 | 1021.1 |
| 20260507071009 | 11 | 231 | 3.2 | 8.0 | 0.00 | 0.03 | 0.00 | 83 | 1021.1 |
| 20260507070511 | 11 | 239 | 1.6 | 9.7 | 0.00 | 0.03 | 0.00 | 83 | 1021.1 |
| 20260507070036 | 11 | 228 | 4.8 | 9.7 | 0.00 | 0.03 | 0.00 | 83 | 1021.2 |
| 20260507065503 | 11 | 228 | 4.8 | 8.0 | 0.00 | 0.03 | 0.03 | 83 | 1021.3 |
| 20260507065003 | 11 | 221 | 3.2 | 8.0 | 0.00 | 0.03 | 0.03 | 83 | 1021.3 |
| 20260507064505 | 11 | 229 | 3.2 | 8.0 | 0.00 | 0.03 | 0.03 | 84 | 1021.3 |
| 20260507064003 | 11 | 240 | 4.8 | 11.3 | 0.00 | 0.03 | 0.03 | 84 | 1021.3 |
| 20260507063500 | 11 | 190 | 4.8 | 11.3 | 0.00 | 0.03 | 0.03 | 84 | 1021.3 |
| 20260507063002 | 11 | 209 | 3.2 | 8.0 | 0.00 | 0.03 | 0.03 | 85 | 1021.3 |
| 20260507062505 | 11 | 276 | 4.8 | 8.0 | 0.00 | 0.03 | 0.03 | 85 | 1021.3 |
| 20260507062003 | 11 | 198 | 1.6 | 11.3 | 0.00 | 0.03 | 0.03 | 85 | 1021.3 |
| 20260507061502 | 11 | 240 | 4.8 | 11.3 | 0.00 | 0.03 | 0.03 | 85 | 1021.3 |
| 20260507061003 | 11 | 198 | 4.8 | 12.9 | 0.00 | 0.03 | 0.03 | 86 | 1021.3 |
| 20260507060502 | 11 | 250 | 8.0 | 12.9 | 0.00 | 0.03 | 0.03 | 86 | 1021.3 |
| 20260507060015 | 11 | 229 | 4.8 | 9.7 | 0.00 | 0.03 | 0.03 | 86 | 1021.3 |
| 20260507055503 | 11 | 230 | 6.4 | 11.3 | 0.00 | 0.03 | 0.03 | 86 | 1021.3 |
| 20260507055003 | 11 | 240 | 4.8 | 12.9 | 0.00 | 0.03 | 0.03 | 86 | 1021.1 |
| 20260507054506 | 11 | 242 | 4.8 | 12.9 | 0.00 | 0.03 | 0.03 | 86 | 1021.2 |
| 20260507054004 | 11 | 240 | 6.4 | 9.7 | 0.00 | 0.03 | 0.03 | 86 | 1021.1 |
| 20260507053504 | 11 | 263 | 6.4 | 9.7 | 0.00 | 0.03 | 0.03 | 86 | 1021.3 |
| 20260507053006 | 11 | 212 | 4.8 | 9.7 | 0.00 | 0.03 | 0.03 | 87 | 1021.1 |
| 20260507052503 | 11 | 233 | 4.8 | 11.3 | 0.00 | 0.03 | 0.03 | 87 | 1021.2 |
| 20260507052004 | 11 | 229 | 4.8 | 11.3 | 0.00 | 0.03 | 0.03 | 87 | 1021.2 |
| 20260507051507 | 11 | 232 | 4.8 | 8.0 | 0.00 | 0.03 | 0.03 | 87 | 1021.2 |
| 20260507051004 | 11 | 245 | 4.8 | 8.0 | 0.00 | 0.03 | 0.03 | 87 | 1021.2 |
| 20260507050504 | 11 | 260 | 1.6 | 9.7 | 0.00 | 0.03 | 0.03 | 86 | 1021.1 |
| 20260507050009 | 11 | 268 | 3.2 | 9.7 | 0.00 | 0.03 | 0.03 | 86 | 1021.1 |
| 20260507045504 | 11 | 268 | 3.2 | 11.3 | 0.00 | 0.03 | 0.03 | 86 | 1021.1 |
| 20260507045002 | 11 | 225 | 3.2 | 11.3 | 0.00 | 0.03 | 0.03 | 85 | 1021.2 |
| 20260507044506 | 11 | 261 | 4.8 | 12.9 | 0.00 | 0.03 | 0.03 | 84 | 1021.3 |
| 20260507044003 | 11 | 264 | 6.4 | 12.9 | 0.00 | 0.03 | 0.03 | 84 | 1021.2 |
| 20260507043503 | 11 | 234 | 4.8 | 11.3 | 0.00 | 0.03 | 0.03 | 83 | 1021.1 |
| 20260507043005 | 11 | 182 | 6.4 | 12.9 | 0.00 | 0.03 | 0.03 | 83 | 1021.1 |
| 20260507042503 | 11 | 240 | 3.2 | 16.1 | 0.00 | 0.03 | 0.03 | 83 | 1021.0 |
| 20260507042003 | 12 | 260 | 6.4 | 16.1 | 0.00 | 0.03 | 0.03 | 82 | 1021.0 |
| 20260507041520 | 12 | 223 | 6.4 | 12.9 | 0.00 | 0.03 | 0.03 | 81 | 1021.0 |
| 20260507041004 | 12 | 219 | 6.4 | 14.5 | 0.00 | 0.03 | 0.03 | 80 | 1021.0 |
| 20260507040505 | 12 | 224 | 6.4 | 14.5 | 0.00 | 0.03 | 0.03 | 80 | 1021.0 |
| 20260507040006 | 12 | 214 | 8.0 | 14.5 | 0.00 | 0.03 | 0.03 | 80 | 1021.0 |
| 20260507035503 | 12 | 283 | 6.4 | 17.7 | 0.00 | 0.03 | 0.03 | 79 | 1020.9 |
| 20260507035003 | 12 | 223 | 8.0 | 17.7 | 0.00 | 0.03 | 0.03 | 79 | 1020.9 |
| 20260507034506 | 12 | 233 | 11.3 | 17.7 | 0.00 | 0.03 | 0.03 | 79 | 1020.9 |
| 20260507034002 | 12 | 217 | 6.4 | 14.5 | 0.00 | 0.03 | 0.03 | 79 | 1020.8 |
| 20260507033504 | 12 | 246 | 6.4 | 14.5 | 0.00 | 0.03 | 0.03 | 79 | 1020.8 |
| 20260507033006 | 12 | 253 | 6.4 | 11.3 | 0.00 | 0.03 | 0.03 | 79 | 1020.7 |
| 20260507032506 | 12 | 223 | 4.8 | 12.9 | 0.00 | 0.03 | 0.03 | 79 | 1020.7 |
| 20260507032003 | 12 | 242 | 6.4 | 12.9 | 0.00 | 0.03 | 0.03 | 79 | 1020.7 |
| 20260507031507 | 12 | 213 | 3.2 | 14.5 | 0.00 | 0.03 | 0.03 | 79 | 1020.6 |
| 20260507031009 | 12 | 242 | 6.4 | 14.5 | 0.00 | 0.03 | 0.03 | 79 | 1020.6 |
| 20260507030506 | 12 | 263 | 4.8 | 12.9 | 0.00 | 0.03 | 0.03 | 79 | 1020.6 |
| 20260507030005 | 12 | 223 | 8.0 | 14.5 | 0.00 | 0.03 | 0.03 | 78 | 1020.6 |
| 20260507025504 | 12 | 235 | 4.8 | 14.5 | 0.00 | 0.03 | 0.03 | 78 | 1020.6 |
| 20260507025003 | 12 | 265 | 4.8 | 11.3 | 0.00 | 0.03 | 0.03 | 78 | 1020.6 |
| 20260507024509 | 12 | 236 | 3.2 | 11.3 | 0.00 | 0.03 | 0.03 | 78 | 1020.6 |
| 20260507024005 | 12 | 266 | 4.8 | 12.9 | 0.00 | 0.03 | 0.03 | 78 | 1020.5 |
| 20260507023507 | 12 | 218 | 6.4 | 14.5 | 0.00 | 0.03 | 0.03 | 77 | 1020.5 |
| 20260507023006 | 12 | 257 | 8.0 | 14.5 | 0.00 | 0.03 | 0.03 | 77 | 1020.6 |
| 20260507022507 | 12 | 206 | 4.8 | 17.7 | 0.00 | 0.03 | 0.03 | 77 | 1020.5 |
| 20260507022010 | 12 | 284 | 9.7 | 19.3 | 0.00 | 0.03 | 0.03 | 76 | 1020.5 |
| 20260507021508 | 12 | 248 | 11.3 | 19.3 | 0.00 | 0.03 | 0.03 | 76 | 1020.5 |
| 20260507021002 | 12 | 260 | 11.3 | 19.3 | 0.00 | 0.03 | 0.03 | 77 | 1020.5 |
| 20260507020505 | 12 | 269 | 6.4 | 17.7 | 0.00 | 0.03 | 0.03 | 77 | 1020.5 |
| 20260507020007 | 12 | 232 | 6.4 | 17.7 | 0.00 | 0.03 | 0.03 | 77 | 1020.5 |
| 20260507015506 | 13 | 240 | 9.7 | 19.3 | 0.00 | 0.03 | 0.03 | 76 | 1020.5 |
| 20260507015002 | 13 | 254 | 11.3 | 17.7 | 0.00 | 0.03 | 0.03 | 76 | 1020.5 |
| 20260507014510 | 13 | 250 | 6.4 | 17.7 | 0.00 | 0.03 | 0.03 | 75 | 1020.5 |
| 20260507014003 | 13 | 208 | 9.7 | 16.1 | 0.00 | 0.03 | 0.03 | 75 | 1020.5 |
| 20260507013505 | 13 | 249 | 9.7 | 16.1 | 0.00 | 0.03 | 0.03 | 75 | 1020.5 |
| 20260507013006 | 13 | 211 | 9.7 | 16.1 | 0.00 | 0.03 | 0.03 | 75 | 1020.5 |
| 20260507012507 | 13 | 213 | 8.0 | 14.5 | 0.00 | 0.03 | 0.03 | 75 | 1020.5 |
| 20260507012005 | 13 | 254 | 8.0 | 14.5 | 0.00 | 0.03 | 0.03 | 75 | 1020.5 |
| 20260507011516 | 13 | 240 | 8.0 | 14.5 | 0.00 | 0.03 | 0.03 | 75 | 1020.5 |
| 20260507011002 | 13 | 254 | 9.7 | 17.7 | 0.00 | 0.03 | 0.03 | 75 | 1020.5 |
| 20260507010506 | 13 | 249 | 8.0 | 19.3 | 0.00 | 0.03 | 0.03 | 75 | 1020.5 |
| 20260507010006 | 13 | 220 | 11.3 | 19.3 | 0.00 | 0.03 | 0.03 | 75 | 1020.5 |
| 20260507005506 | 13 | 217 | 11.3 | 17.7 | 0.00 | 0.03 | 0.03 | 75 | 1020.5 |
| 20260507005006 | 13 | 262 | 11.3 | 17.7 | 0.00 | 0.03 | 0.03 | 76 | 1020.6 |
| 20260507004517 | 13 | 246 | 8.0 | 17.7 | 0.00 | 0.03 | 0.03 | 75 | 1020.6 |
| 20260507004004 | 13 | 277 | 9.7 | 17.7 | 0.00 | 0.03 | 0.03 | 75 | 1020.6 |
| 20260507003506 | 13 | 233 | 8.0 | 20.9 | 0.00 | 0.03 | 0.03 | 76 | 1020.6 |
| 20260507003008 | 13 | 268 | 11.3 | 20.9 | 0.00 | 0.03 | 0.03 | 75 | 1020.5 |
| 20260507002506 | 13 | 223 | 9.7 | 19.3 | 0.00 | 0.03 | 0.03 | 76 | 1020.6 |
| 20260507002007 | 13 | 240 | 9.7 | 16.1 | 0.00 | 0.03 | 0.03 | 76 | 1020.6 |
| 20260507001508 | 13 | 276 | 8.0 | 16.1 | 0.00 | 0.03 | 0.03 | 76 | 1020.5 |
| 20260507001005 | 13 | 246 | 6.4 | 16.1 | 0.00 | 0.03 | 0.03 | 76 | 1020.5 |
| 20260507000505 | 13 | 228 | 6.4 | 14.5 | 0.00 | 0.03 | 0.03 | 77 | 1020.6 |
| 20260507000011 | 13 | 221 | 4.8 | 14.5 | 0.00 | 0.03 | 0.03 | 78 | 1020.5 |
| 20260506235506 | 13 | 259 | 6.4 | 16.1 | 0.00 | 0.03 | 0.03 | 76 | 1020.5 |
| 20260506235006 | 13 | 269 | 8.0 | 19.3 | 0.00 | 0.03 | 0.03 | 76 | 1020.6 |
| 20260506234511 | 13 | 267 | 8.0 | 19.3 | 0.00 | 0.03 | 0.03 | 76 | 1020.6 |
| 20260506234006 | 13 | 275 | 11.3 | 22.5 | 0.00 | 0.03 | 0.03 | 76 | 1020.6 |
| 20260506233506 | 13 | 263 | 9.7 | 22.5 | 0.00 | 0.03 | 0.03 | 75 | 1020.5 |
| 20260506233006 | 13 | 276 | 4.8 | 12.9 | 0.00 | 0.03 | 0.03 | 77 | 1020.6 |
| 20260506232503 | 13 | 260 | 9.7 | 17.7 | 0.00 | 0.03 | 0.03 | 76 | 1020.7 |
| 20260506232006 | 13 | 287 | 8.0 | 17.7 | 0.00 | 0.03 | 0.03 | 75 | 1020.7 |
| 20260506231522 | 13 | 281 | 8.0 | 16.1 | 0.00 | 0.03 | 0.03 | 75 | 1020.6 |
| 20260506231006 | 13 | 284 | 8.0 | 16.1 | 0.00 | 0.03 | 0.03 | 74 | 1020.6 |
| 20260506230504 | 13 | 242 | 8.0 | 20.9 | 0.00 | 0.03 | 0.03 | 74 | 1020.7 |
| 20260506230013 | 13 | 272 | 11.3 | 20.9 | 0.00 | 0.03 | 0.03 | 73 | 1020.6 |
| 20260506225505 | 13 | 254 | 9.7 | 17.7 | 0.00 | 0.03 | 0.03 | 73 | 1020.7 |
| 20260506225006 | 13 | 257 | 11.3 | 17.7 | 0.00 | 0.03 | 0.03 | 72 | 1020.7 |
| 20260506224513 | 13 | 261 | 11.3 | 16.1 | 0.00 | 0.03 | 0.03 | 73 | 1020.7 |
| 20260506224007 | 13 | 254 | 8.0 | 19.3 | 0.00 | 0.03 | 0.03 | 74 | 1020.7 |
| 20260506223507 | 13 | 275 | 11.3 | 19.3 | 0.00 | 0.03 | 0.03 | 74 | 1020.8 |
| 20260506223009 | 13 | 215 | 8.0 | 17.7 | 0.00 | 0.03 | 0.03 | 75 | 1020.7 |
| 20260506222507 | 13 | 261 | 9.7 | 17.7 | 0.00 | 0.03 | 0.03 | 74 | 1020.8 |
| 20260506222008 | 13 | 248 | 8.0 | 16.1 | 0.00 | 0.03 | 0.03 | 74 | 1020.9 |
| 20260506221508 | 13 | 261 | 8.0 | 17.7 | 0.00 | 0.03 | 0.03 | 75 | 1020.9 |
| 20260506221012 | 13 | 248 | 9.7 | 17.7 | 0.00 | 0.03 | 0.03 | 74 | 1021.0 |
| 20260506220504 | 13 | 236 | 8.0 | 16.1 | 0.00 | 0.03 | 0.03 | 75 | 1020.9 |
| 20260506220010 | 13 | 262 | 8.0 | 16.1 | 0.00 | 0.03 | 0.03 | 75 | 1020.9 |
| 20260506215509 | 13 | 235 | 6.4 | 17.7 | 0.00 | 0.03 | 0.03 | 76 | 1021.0 |
| 20260506215008 | 13 | 241 | 8.0 | 17.7 | 0.00 | 0.03 | 0.03 | 75 | 1021.0 |
| 20260506214511 | 13 | 259 | 8.0 | 17.7 | 0.00 | 0.03 | 0.03 | 75 | 1021.0 |
| 20260506214008 | 13 | 250 | 8.0 | 16.1 | 0.00 | 0.03 | 0.03 | 75 | 1021.0 |
| 20260506213506 | 13 | 284 | 8.0 | 16.1 | 0.00 | 0.03 | 0.03 | 76 | 1021.0 |
| 20260506213012 | 13 | 204 | 9.7 | 16.1 | 0.00 | 0.03 | 0.03 | 75 | 1021.0 |
| 20260506212506 | 13 | 271 | 9.7 | 16.1 | 0.00 | 0.03 | 0.03 | 75 | 1021.0 |
| 20260506212007 | 13 | 279 | 8.0 | 17.7 | 0.00 | 0.03 | 0.03 | 75 | 1021.0 |
| 20260506211516 | 13 | 252 | 9.7 | 17.7 | 0.00 | 0.03 | 0.03 | 74 | 1021.1 |
| 20260506211008 | 13 | 194 | 8.0 | 14.5 | 0.00 | 0.03 | 0.03 | 76 | 1020.9 |
| 20260506210507 | 13 | 220 | 8.0 | 14.5 | 0.00 | 0.03 | 0.03 | 75 | 1021.0 |
| 20260506210016 | 13 | 270 | 8.0 | 14.5 | 0.00 | 0.03 | 0.03 | 76 | 1021.0 |
| 20260506205509 | 13 | 259 | 8.0 | 14.5 | 0.00 | 0.03 | 0.03 | 76 | 1021.0 |
| 20260506205005 | 13 | 305 | 6.4 | 14.5 | 0.00 | 0.03 | 0.03 | 76 | 1020.9 |
| 20260506204515 | 13 | 249 | 8.0 | 22.5 | 0.00 | 0.03 | 0.03 | 77 | 1021.0 |
| 20260506204005 | 13 | 275 | 9.7 | 22.5 | 0.00 | 0.03 | 0.03 | 76 | 1020.9 |
| 20260506203511 | 13 | 302 | 12.9 | 19.3 | 0.00 | 0.03 | 0.03 | 75 | 1020.8 |
| 20260506203003 | 13 | 242 | 8.0 | 19.3 | 0.00 | 0.03 | 0.03 | 75 | 1020.8 |
| 20260506202503 | 13 | 241 | 8.0 | 20.9 | 0.00 | 0.03 | 0.03 | 76 | 1020.8 |
| 20260506202006 | 13 | 256 | 11.3 | 20.9 | 0.00 | 0.03 | 0.03 | 75 | 1020.8 |
| 20260506201507 | 13 | 257 | 8.0 | 16.1 | 0.00 | 0.03 | 0.03 | 76 | 1020.8 |
| 20260506201007 | 13 | 279 | 8.0 | 17.7 | 0.00 | 0.03 | 0.03 | 75 | 1020.8 |
| 20260506200506 | 13 | 220 | 8.0 | 17.7 | 0.00 | 0.03 | 0.03 | 76 | 1020.7 |
| 20260506200011 | 13 | 276 | 6.4 | 16.1 | 0.00 | 0.03 | 0.03 | 76 | 1020.7 |
| 20260506195507 | 13 | 202 | 4.8 | 16.1 | 0.00 | 0.03 | 0.03 | 77 | 1020.7 |
| 20260506195008 | 13 | 273 | 8.0 | 16.1 | 0.00 | 0.03 | 0.03 | 75 | 1020.7 |
| 20260506194515 | 13 | 283 | 8.0 | 16.1 | 0.00 | 0.03 | 0.03 | 76 | 1020.7 |
| 20260506194007 | 13 | 231 | 8.0 | 16.1 | 0.00 | 0.03 | 0.03 | 77 | 1020.6 |
| 20260506193505 | 13 | 252 | 8.0 | 16.1 | 0.00 | 0.03 | 0.03 | 77 | 1020.6 |
| 20260506193017 | 13 | 273 | 4.8 | 12.9 | 0.00 | 0.03 | 0.03 | 78 | 1020.6 |
| 20260506192506 | 13 | 253 | 6.4 | 12.9 | 0.00 | 0.03 | 0.03 | 78 | 1020.5 |
| 20260506192004 | 13 | 255 | 4.8 | 14.5 | 0.00 | 0.03 | 0.03 | 78 | 1020.5 |
| 20260506191507 | 12 | 246 | 6.4 | 14.5 | 0.00 | 0.03 | 0.03 | 77 | 1020.4 |
| 20260506191003 | 12 | 264 | 6.4 | 12.9 | 0.00 | 0.03 | 0.03 | 78 | 1020.5 |
| 20260506190507 | 12 | 262 | 6.4 | 12.9 | 0.00 | 0.03 | 0.03 | 78 | 1020.5 |
| 20260506190010 | 12 | 219 | 4.8 | 14.5 | 0.00 | 0.03 | 0.03 | 79 | 1020.6 |
| 20260506185504 | 12 | 227 | 6.4 | 12.9 | 0.00 | 0.03 | 0.03 | 79 | 1020.6 |
| 20260506185009 | 12 | 259 | 6.4 | 12.9 | 0.00 | 0.03 | 0.03 | 79 | 1020.5 |
| 20260506184516 | 12 | 254 | 8.0 | 14.5 | 0.00 | 0.03 | 0.03 | 79 | 1020.5 |
| 20260506184011 | 12 | 292 | 6.4 | 19.3 | 0.00 | 0.03 | 0.03 | 80 | 1020.5 |
| 20260506183508 | 12 | 267 | 3.2 | 19.3 | 0.00 | 0.03 | 0.03 | 80 | 1020.6 |
| 20260506183028 | 12 | 229 | 4.8 | 11.3 | 0.00 | 0.03 | 0.03 | 81 | 1020.6 |
| 20260506182504 | 12 | 265 | 4.8 | 11.3 | 0.00 | 0.03 | 0.03 | 81 | 1020.6 |
| 20260506182006 | 12 | 253 | 3.2 | 11.3 | 0.00 | 0.03 | 0.03 | 80 | 1020.6 |
| 20260506181516 | 12 | 276 | 4.8 | 11.3 | 0.00 | 0.03 | 0.03 | 80 | 1020.4 |
| 20260506181002 | 12 | 234 | 4.8 | 14.5 | 0.00 | 0.03 | 0.03 | 80 | 1020.4 |
| 20260506180504 | 12 | 221 | 6.4 | 14.5 | 0.00 | 0.03 | 0.03 | 81 | 1020.3 |
| 20260506180011 | 12 | 254 | 6.4 | 12.9 | 0.00 | 0.03 | 0.03 | 81 | 1020.3 |
| 20260506175507 | 12 | 260 | 6.4 | 11.3 | 0.00 | 0.03 | 0.03 | 82 | 1020.4 |
| 20260506175006 | 12 | 246 | 4.8 | 12.9 | 0.00 | 0.03 | 0.03 | 82 | 1020.3 |
| 20260506174512 | 12 | 275 | 4.8 | 14.5 | 0.00 | 0.03 | 0.03 | 83 | 1020.3 |
| 20260506174008 | 11 | 273 | 6.4 | 17.7 | 0.00 | 0.03 | 0.03 | 83 | 1020.4 |
| 20260506173508 | 11 | 213 | 9.7 | 17.7 | 0.00 | 0.03 | 0.03 | 84 | 1020.3 |
| 20260506173019 | 11 | 309 | 9.7 | 16.1 | 0.00 | 0.03 | 0.03 | 84 | 1020.3 |
| 20260506172508 | 11 | 225 | 8.0 | 14.5 | 0.00 | 0.03 | 0.03 | 84 | 1020.4 |
| 20260506172008 | 11 | 277 | 4.8 | 16.1 | 0.00 | 0.03 | 0.03 | 85 | 1020.4 |
| 20260506171526 | 11 | 286 | 8.0 | 16.1 | 0.00 | 0.03 | 0.03 | 85 | 1020.4 |
| 20260506171009 | 11 | 229 | 8.0 | 16.1 | 0.00 | 0.03 | 0.03 | 86 | 1020.4 |
| 20260506170510 | 11 | 276 | 8.0 | 16.1 | 0.00 | 0.03 | 0.03 | 85 | 1020.3 |
| 20260506170007 | 11 | 238 | 8.0 | 12.9 | 0.00 | 0.03 | 0.03 | 84 | 1020.3 |
| 20260506165505 | 12 | 261 | 6.4 | 14.5 | 0.00 | 0.03 | 0.03 | 84 | 1020.4 |
| 20260506165008 | 12 | 273 | 8.0 | 14.5 | 0.00 | 0.03 | 0.03 | 84 | 1020.4 |
| 20260506164512 | 12 | 192 | 6.4 | 11.3 | 0.00 | 0.03 | 0.03 | 85 | 1020.3 |
| 20260506164011 | 11 | 254 | 3.2 | 11.3 | 0.00 | 0.03 | 0.03 | 86 | 1020.1 |
| 20260506163506 | 11 | 229 | 4.8 | 11.3 | 0.00 | 0.03 | 0.03 | 87 | 1020.0 |
| 20260506163015 | 11 | 213 | 6.4 | 11.3 | 0.00 | 0.03 | 0.03 | 86 | 1019.9 |
| 20260506162507 | 11 | 209 | 4.8 | 11.3 | 0.00 | 0.03 | 0.03 | 88 | 1019.9 |
| 20260506162013 | 11 | 238 | 6.4 | 11.3 | 0.00 | 0.03 | 0.03 | 88 | 1019.7 |
| 20260506161522 | 11 | 240 | 3.2 | 8.0 | 0.00 | 0.03 | 0.03 | 89 | 1019.7 |
| 20260506161008 | 11 | 203 | 4.8 | 8.0 | 0.00 | 0.03 | 0.03 | 90 | 1019.7 |
| 20260506160507 | 11 | 261 | 4.8 | 8.0 | 0.00 | 0.03 | 0.03 | 91 | 1019.8 |
| 20260506160017 | 11 | 240 | 4.8 | 8.0 | 0.00 | 0.03 | 0.03 | 91 | 1019.9 |
| 20260506155508 | 10 | 231 | 4.8 | 8.0 | 0.00 | 0.03 | 0.03 | 92 | 1020.0 |
| 20260506155009 | 10 | 219 | 4.8 | 6.4 | 0.00 | 0.03 | 0.03 | 92 | 1020.1 |
| 20260506154508 | 10 | 259 | 3.2 | 6.4 | 0.00 | 0.03 | 0.03 | 92 | 1020.1 |
| 20260506154008 | 10 | 265 | 3.2 | 8.0 | 0.00 | 0.03 | 0.03 | 93 | 1020.0 |
| 20260506153506 | 10 | 266 | 3.2 | 8.0 | 0.00 | 0.03 | 0.03 | 93 | 1020.0 |
| 20260506153014 | 10 | 279 | 3.2 | 9.7 | 0.00 | 0.03 | 0.03 | 93 | 1020.0 |
| 20260506152506 | 10 | 275 | 3.2 | 9.7 | 0.00 | 0.03 | 0.03 | 93 | 1019.8 |
| 20260506152008 | 10 | 234 | 6.4 | 9.7 | 0.00 | 0.03 | 0.03 | 93 | 1019.6 |
| 20260506151520 | 10 | 248 | 4.8 | 8.0 | 0.00 | 0.03 | 0.03 | 93 | 1019.5 |
| 20260506151009 | 10 | 248 | 4.8 | 8.0 | 0.00 | 0.03 | 0.03 | 93 | 1019.6 |
| 20260506150509 | 10 | 248 | 3.2 | 8.0 | 0.00 | 0.03 | 0.03 | 93 | 1019.6 |
| 20260506150020 | 10 | 248 | 4.8 | 11.3 | 0.00 | 0.03 | 0.03 | 93 | 1019.7 |
| 20260506145508 | 10 | 273 | 4.8 | 11.3 | 0.00 | 0.03 | 0.03 | 93 | 1019.6 |
| 20260506145009 | 10 | 219 | 3.2 | 9.7 | 0.00 | 0.03 | 0.03 | 93 | 1019.7 |
| 20260506144523 | 10 | 246 | 4.8 | 9.7 | 0.00 | 0.03 | 0.03 | 93 | 1019.7 |
| 20260506144008 | 10 | 251 | 3.2 | 9.7 | 0.00 | 0.03 | 0.03 | 93 | 1019.7 |
| 20260506143505 | 10 | 250 | 3.2 | 6.4 | 0.00 | 0.03 | 0.03 | 92 | 1019.6 |
| 20260506143022 | 10 | 269 | 3.2 | 6.4 | 0.00 | 0.03 | 0.03 | 92 | 1019.5 |
| 20260506142506 | 10 | 272 | 3.2 | 8.0 | 0.00 | 0.03 | 0.03 | 92 | 1019.5 |
| 20260506142007 | 10 | 234 | 4.8 | 8.0 | 0.00 | 0.03 | 0.03 | 92 | 1019.3 |
| 20260506141517 | 10 | 227 | 4.8 | 6.4 | 0.00 | 0.03 | 0.03 | 92 | 1019.4 |
| 20260506141009 | 10 | 249 | 3.2 | 6.4 | 0.00 | 0.03 | 0.03 | 92 | 1019.6 |
| 20260506140507 | 10 | 238 | 3.2 | 9.7 | 0.00 | 0.03 | 0.03 | 92 | 1019.5 |
| 20260506140022 | 10 | 282 | 3.2 | 11.3 | 0.00 | 0.03 | 0.03 | 91 | 1019.6 |
| 20260506135514 | 11 | 274 | 3.2 | 11.3 | 0.00 | 0.03 | 0.03 | 91 | 1019.6 |
| 20260506135008 | 11 | 236 | 3.2 | 9.7 | 0.00 | 0.03 | 0.03 | 91 | 1019.5 |
| 20260506134523 | 10 | 223 | 4.8 | 12.9 | 0.00 | 0.03 | 0.03 | 91 | 1019.2 |
| 20260506134009 | 10 | 235 | 4.8 | 12.9 | 0.00 | 0.03 | 0.03 | 91 | 1019.4 |
| 20260506133510 | 11 | 259 | 6.4 | 11.3 | 0.00 | 0.03 | 0.03 | 90 | 1019.3 |
| 20260506133024 | 11 | 216 | 4.8 | 9.7 | 0.00 | 0.03 | 0.03 | 90 | 1019.3 |
| 20260506132510 | 11 | 223 | 4.8 | 11.3 | 0.00 | 0.03 | 0.03 | 90 | 1019.3 |
| 20260506132010 | 11 | 263 | 6.4 | 11.3 | 0.00 | 0.03 | 0.03 | 89 | 1019.1 |
| 20260506131517 | 11 | 272 | 4.8 | 9.7 | 0.00 | 0.03 | 0.03 | 89 | 1019.1 |
| 20260506131010 | 11 | 230 | 4.8 | 9.7 | 0.00 | 0.03 | 0.03 | 89 | 1018.8 |
| 20260506130506 | 11 | 238 | 4.8 | 9.7 | 0.00 | 0.03 | 0.03 | 88 | 1018.9 |
| 20260506130021 | 11 | 213 | 4.8 | 9.7 | 0.00 | 0.03 | 0.03 | 88 | 1018.8 |
| 20260506125510 | 11 | 221 | 4.8 | 8.0 | 0.00 | 0.03 | 0.03 | 88 | 1018.7 |
| 20260506125010 | 11 | 217 | 3.2 | 8.0 | 0.00 | 0.03 | 0.03 | 88 | 1018.7 |
| 20260506124524 | 11 | 270 | 4.8 | 8.0 | 0.00 | 0.03 | 0.03 | 88 | 1018.7 |
| 20260506124010 | 11 | 234 | 3.2 | 9.7 | 0.00 | 0.03 | 0.03 | 87 | 1018.7 |
| 20260506123510 | 11 | 267 | 4.8 | 9.7 | 0.00 | 0.03 | 0.03 | 87 | 1018.7 |
| 20260506123028 | 11 | 238 | 1.6 | 4.8 | 0.00 | 0.03 | 0.03 | 87 | 1018.6 |
| 20260506122509 | 11 | 234 | 3.2 | 4.8 | 0.00 | 0.03 | 0.03 | 87 | 1018.6 |
| 20260506122012 | 11 | 240 | 1.6 | 4.8 | 0.00 | 0.03 | 0.03 | 87 | 1018.6 |
| 20260506121521 | 11 | 227 | 1.6 | 4.8 | 0.00 | 0.03 | 0.03 | 87 | 1018.6 |
| 20260506121007 | 11 | 242 | 3.2 | 4.8 | 0.00 | 0.03 | 0.03 | 87 | 1018.6 |
| 20260506120507 | 11 | 240 | 1.6 | 4.8 | 0.00 | 0.03 | 0.03 | 87 | 1018.7 |
| 20260506120023 | 11 | 245 | 3.2 | 6.4 | 0.00 | 0.03 | 0.03 | 87 | 1018.6 |
| 20260506115511 | 11 | 240 | 3.2 | 6.4 | 0.00 | 0.03 | 0.03 | 87 | 1018.5 |
| 20260506115009 | 11 | 208 | 3.2 | 6.4 | 0.00 | 0.03 | 0.03 | 87 | 1018.5 |
| 20260506114521 | 11 | 220 | 3.2 | 6.4 | 0.00 | 0.03 | 0.03 | 88 | 1018.3 |
| 20260506114011 | 11 | 190 | 3.2 | 6.4 | 0.00 | 0.03 | 0.03 | 87 | 1018.3 |
| 20260506113509 | 11 | 239 | 3.2 | 6.4 | 0.00 | 0.03 | 0.03 | 88 | 1018.3 |
| 20260506113030 | 11 | 221 | 3.2 | 6.4 | 0.00 | 0.03 | 0.03 | 87 | 1018.4 |
| 20260506112510 | 11 | 243 | 3.2 | 8.0 | 0.00 | 0.03 | 0.03 | 87 | 1018.5 |
| 20260506112011 | 11 | 218 | 3.2 | 11.3 | 0.00 | 0.03 | 0.03 | 87 | 1018.5 |
| 20260506111512 | 11 | 231 | 6.4 | 11.3 | 0.00 | 0.03 | 0.03 | 87 | 1018.5 |
| 20260506111010 | 11 | 274 | 6.4 | 9.7 | 0.00 | 0.03 | 0.03 | 87 | 1018.4 |
| 20260506110507 | 11 | 238 | 4.8 | 9.7 | 0.00 | 0.03 | 0.03 | 86 | 1018.3 |